Voltar ao catálogo

STARLINK-33830

AtivoComunicaçõesVLEO
NORAD 63587·PAYLOAD·🇺🇸 United States

Lançado Apr 14, 2025 de Cape Canaveral Space Force Station

Loading…

Próximas Passagens (próximas 24 horas)

TLE

AtualizadoSource: CelesTrak SupGP

Época: Sep 15, 2026, 03:03 UTC

1 63587C 25076U   26258.12756944  .00049147  00000+0  17798-2 0  2586
2 63587  43.0034 331.8426 0001795 266.2119  52.6311 15.27558260    11

Acompanhe STARLINK-33830 em tempo real com AllMySat

Download on the App Store